Home   Weather   Fernando de Noronha   Past weeks
Flag for Brazil

Past Weather in Fernando de Noronha, Pernambuco, Brazil — Yesterday and Last 2 Weeks

Now
75 °F

Passing clouds.


Feels Like: 75 °F
Forecast: 80 / 77 °F
Wind: 7 mph from South

Location: Natal Aeroporto

Current Time: Jul 24, 2019 at 1:06:04 am

Latest Report: Jul 24, 2019 at 12:00 am


Visibility: N/A

Pressure: 29.98 "Hg

Humidity: 89%

Dew Point: 72 °F

Location of Fernando de NoronhaLocation

Past Weather in Fernando de Noronha — Graph

°F

Fernando de Noronha Temperature Yesterday

Maximum temperature yesterday: 86 °F (at 1:00 pm)
Minimum temperature yesterday: 73 °F (at 8:00 am)
Average temperature yesterday: 79 °F

High & Low Weather Summary for the Past Weeks

 TemperatureHumidityPressure
High86 °F (Jul 9, 2:00 pm)100% (Jul 10, 12:38 pm)30.07 "Hg (Jul 10, 12:38 pm)
Low37 °F (Jul 19, 9:00 pm)46% (Jul 23, 1:00 pm)29.89 "Hg (Jul 11, 4:00 pm)
Average76 °F79%29.98 "Hg
* Reported Jul 9 12:00 am — Jul 24 12:00 am, Fernando de Noronha. Weather by CustomWeather, © 2019

Note: Actual official high and low records may vary slightly from our data, if they occured in-between our weather recording intervals... More about our weather records

Advertising

Fernando de Noronha Weather History for the Previous 24 Hours

Scroll right to see more
 ConditionsComfort  
Time TempWeatherWind HumidityBarometerVisibility
12:00 am
Wed, Jul 24
75 °FPassing clouds.7 mph89%29.98 "HgN/A
11:00 pm
Tue, Jul 23
75 °FPassing clouds.7 mph89%29.98 "HgN/A
10:00 pm75 °FPassing clouds.8 mph89%29.98 "HgN/A
9:00 pm75 °FPassing clouds.9 mph89%29.98 "HgN/A
8:00 pm77 °FPassing clouds.7 mph83%29.95 "HgN/A
7:00 pm77 °FPassing clouds.9 mph83%29.95 "HgN/A
6:00 pm81 °FPassing clouds.14 mph70%29.95 "HgN/A
5:00 pm82 °FScattered clouds.15 mph58%29.92 "HgN/A
4:00 pm84 °FPassing clouds.16 mph51%29.92 "HgN/A
3:00 pm84 °FPassing clouds.15 mph58%29.95 "HgN/A
2:00 pm84 °FPassing clouds.16 mph55%29.95 "HgN/A
1:00 pm86 °FPassing clouds.16 mph46%29.98 "HgN/A
12:00 pm84 °FScattered clouds.15 mph55%30.01 "HgN/A
11:00 am84 °FPassing clouds.13 mph55%30.01 "HgN/A
10:00 am82 °FScattered clouds.13 mph58%30.01 "HgN/A
9:00 am77 °FScattered clouds.5 mph83%30.01 "HgN/A
8:00 am73 °FBroken clouds.7 mph89%30.01 "HgN/A
7:00 am75 °FPartly sunny.6 mph83%29.98 "HgN/A
6:00 am77 °FPassing clouds.7 mph74%29.98 "HgN/A
5:00 am77 °FPartly cloudy.8 mph74%29.95 "HgN/A
4:00 am77 °FPassing clouds.8 mph79%29.95 "HgN/A
3:00 am77 °FPassing clouds.9 mph74%29.98 "HgN/A
2:00 am79 °FPassing clouds.10 mph70%29.98 "HgN/A
1:00 am79 °FPassing clouds.9 mph70%30.01 "HgN/A
Weather by CustomWeather, © 2019

See weather overview